National Oceanic Atmosphere Administration National Weather Service Headquarters National Weather Service Headquarters
NOAA logo WFO Anchorage Scalable transition graphic NWS logo
Transition from title bar to navgation bar   Aviation Weather 19 AKDT 
blankspace Home   |   Mobile   |   Social Media   |   Mesonet   |   Surface Map   |   Radar   |   Submit Storm Reports   |   News =03 GMT 

LocalForecast by City, St or Zip Code

spacer

Forecasts/Products
  Public
  Forecast Discussion
    - With Glossary
  Aviation
  Marine
  Hydrology(RFC)
  Rivers & Lakes AHPS
  Ice Desk
  TV Weather
  Fire Weather
  Avalanche
  Travel 511
  Graphical
  xml logo RSS Feeds
  Marine FTPMail

spacer

Data
  Mesonet
  Model Graphics
  Local Model
  Observations
  Marine Obs
  Satellite/Radar
  Vent Factor
  Soaring Index
  Weather Links

spacer

Climate
  PAFC Climate
  Interactive Climate
  PAFC Records
  Local
  National
  More

spacer

Outreach
  About Us
  Community Outreach
  Kids' Page
  Tour/Speaker Request
  Weather Classroom
  Social Media

spacer

Reports
  COOP Observers
  Local Storm Reports
  Spotter Page
  Submit a Storm Report

spacer

Miscellaneous
  Archived Alaska Weather Stories
  Student Career Opportunities
  Research Papers

spacer

Print Friendly/
Low Bandwidth

  Public Forecasts
  Marine Forecasts

spacer

Contact Us
  mailto pafcweb

spacer

Facebook Follow the National Weather Service in Alaska on Twitter
USA.gov is the U.S. government's official web portal to all federal, state and local government web resources and services.


** Important notice for upcoming changes to NWS Anchorage web site ** Read more...
 ICAO ID:   AAWU Graphics

Internet access to TAFs and METAR observations is for planning purposes only. We can not guarantee the timeliness of internet products. Before flying please get a formal pilot briefing (1-800-992-7433) and ALWAYS file a Flight Plan!Pilot briefings are provided to licensed aircraft pilots, ONLY! Others may not use the above number to obtain weather information.

Check out the Key to TAFs and METARs for help with decoding the information.

A 12 hour summary of TAFs can be found here.

PABI TAF
PABI 242200Z 2422/2604 VRB06KT 9999 FEW060 QNH2964INS
      TX26/2503Z TN08/2515Z=


METAR PABI 250253Z 20007KT 10SM BKN065 BKN120 BKN200 23/08 A2972
     RMK AO2 SLP058 CB DSNT NE-E-SE AND SW SHRA DSNT NE-E-SE AND
     SW-W T02280078 53001=
METAR PABI 250253Z 20007KT 10SM BKN065 BKN120 BKN200 23/08 A2972=
METAR PABI 250153Z 25006KT 10SM BKN065 BKN120 BKN200 23/08 A2971 RMK AO2
     SLP058 CB DSNT NE-E-SE AND SW SHRA DSNT NE-E-SE AND SW-W
     T02280078=
METAR PABI 250153Z 25006KT 10SM BKN065 BKN120 BKN200 23/08 A2971=
METAR PABI 250053Z 20007KT 10SM BKN065 BKN200 23/07 A2971 RMK AO2 SLP058
     CB DSNT NE-E-SE AND SW MOV N SHRA DSNT NE-E-SE AND SW
     T02280072=
METAR PABI 250053Z 20007KT 10SM BKN065 BKN200 23/07 A2971=
METAR PABI 242353Z 22004KT 10SM SCT065 SCT120 SCT160 BKN200 23/07
     A2971 RMK AO2 SLP059 CB DSNT E-SE-S-SW MOV N SHRA DSNT E-SE
     T02280072 10239 20178 56006=
METAR PABI 242353Z 22004KT 10SM SCT065 SCT120 SCT160 BKN200 23/07
     A2971=


National Weather Service
Anchorage Forecast Office
6930 Sand Lake Road
Anchorage, Ak 99502
(907) 266-5105 M-F/7-5pm
About Us
Career Opportunities
Glossary
Disclaimer
Privacy Policy
Credits
Alaska Weather Information Line:
1-800-472-0391